PA8E-13 Weather Reports


time (UTC)temp
F
wind
direction
speed
knots
gust
knots
rain 1hr
in
rain 24hr
in
rain mn
in
humidity
%
barometer
mb
20260503021812 58 139 1.7 4.3 0.00 0.30 0.27 91 1011.8
20260503020812 58 113 0.9 2.6 0.00 0.30 0.27 91 1011.8
20260503015816 58 113 0.0 1.7 0.00 0.30 0.27 91 1011.7
20260503014811 57 111 0.9 2.6 0.00 0.30 0.27 91 1011.8
20260503013828 57 88 0.9 2.6 0.00 0.30 0.27 91 1011.8
20260503012818 58 77 1.7 4.3 0.01 0.30 0.27 91 1011.7
20260503011811 57 109 0.9 4.3 0.01 0.30 0.27 91 1011.9
20260503010813 57 113 0.9 3.5 0.01 0.30 0.27 91 1011.8
20260503005812 57 82 1.7 5.2 0.01 0.30 0.27 91 1011.9
20260503004810 57 95 2.6 6.1 0.01 0.30 0.27 91 1012.0
20260503003916 57 106 2.6 8.7 0.01 0.30 0.27 91 1012.2
20260503002811 57 97 3.5 7.8 0.00 0.29 0.26 91 1012.2
20260503001810 57 89 2.6 6.1 0.00 0.29 0.26 90 1012.6
20260503000813 57 87 1.7 4.3 0.00 0.29 0.26 91 1012.5
20260502235812 57 76 1.7 5.2 0.01 0.29 0.26 91 1012.5
20260502234818 58 71 1.7 5.2 0.04 0.29 0.26 90 1012.6
20260502233812 58 76 2.6 5.2 0.11 0.29 0.26 90 1012.7
20260502232812 58 94 1.7 6.1 0.15 0.29 0.26 90 1012.9
20260502231813 58 97 0.9 3.5 0.19 0.29 0.26 90 1012.8
20260502230831 57 37 2.6 7.8 0.23 0.29 0.26 91 1012.6
20260502225842 58 32 2.6 5.2 0.28 0.28 0.25 90 1013.0
20260502224811 58 7 4.3 8.7 0.25 0.25 0.22 89 1013.3
20260502223810 59 40 1.7 5.2 0.18 0.18 0.15 85 1014.1
20260502222811 59 62 0.0 0.9 0.14 0.14 0.11 81 1014.4
20260502221811 59 270 1.7 4.3 0.10 0.10 0.07 78 1014.8
20260502220823 60 245 2.6 4.3 0.06 0.06 0.03 73 1015.1
20260502215812 62 225 6.1 11.3 0.00 0.00 0.00 62 1015.1
20260502214811 62 210 4.3 9.6 0.00 0.00 0.00 62 1014.4
20260502213832 62 342 1.7 5.2 0.00 0.00 0.00 62 1013.7
20260502212830 62 18 1.7 4.3 0.00 0.00 0.00 61 1013.6
20260502211811 62 62 2.6 8.7 0.00 0.00 0.00 60 1013.9
20260502210916 63 80 2.6 7.8 0.00 0.00 0.00 58 1013.7
20260502205812 63 28 2.6 7.0 0.00 0.00 0.00 57 1013.4
20260502204813 63 19 1.7 4.3 0.00 0.00 0.00 55 1013.6
20260502203813 63 7 2.6 6.1 0.00 0.00 0.00 55 1013.8
20260502202836 63 25 1.7 4.3 0.00 0.00 0.00 55 1013.9
20260502201818 63 21 1.7 3.5 0.00 0.00 0.00 56 1014.0
20260502200812 63 356 1.7 3.5 0.00 0.00 0.00 58 1014.1
20260502195831 63 13 1.7 4.3 0.00 0.00 0.00 58 1014.3
20260502194811 64 0 1.7 4.3 0.00 0.00 0.00 57 1014.3
20260502193811 64 21 2.6 6.1 0.00 0.00 0.00 56 1014.4
20260502192814 65 22 1.7 4.3 0.00 0.00 0.00 54 1014.4
20260502191811 65 358 0.9 2.6 0.00 0.00 0.00 51 1014.3
20260502190810 66 354 0.9 2.6 0.00 0.00 0.00 51 1014.3
20260502185813 66 360 2.6 4.3 0.00 0.00 0.00 50 1014.3
20260502184813 67 5 0.9 2.6 0.00 0.00 0.00 50 1014.4
20260502183823 67 341 1.7 4.3 0.00 0.00 0.00 48 1014.3
20260502182813 68 350 2.6 5.2 0.00 0.00 0.00 48 1014.3
20260502181812 68 328 2.6 6.1 0.00 0.00 0.00 48 1014.2
20260502180815 68 337 2.6 5.2 0.00 0.00 0.00 48 1014.2
20260502163811 73 274 2.6 5.2 0.00 0.00 0.00 47 1015.1
20260502162814 73 290 2.6 6.1 0.00 0.00 0.00 47 1015.2
20260502161851 73 280 2.6 6.1 0.00 0.00 0.00 49 1015.3
20260502160838 73 222 2.6 8.7 0.00 0.00 0.00 48 1015.3
20260502151811 73 205 2.6 7.8 0.00 0.00 0.00 51 1015.7
20260502150825 72 267 4.3 7.0 0.00 0.00 0.00 51 1015.8
20260502122831 70 208 4.3 10.4 0.00 0.00 0.00 59 1017.5
20260502121833 69 214 6.1 9.6 0.00 0.00 0.00 60 1017.6
20260502120810 70 217 4.3 8.7 0.00 0.00 0.00 58 1017.6
20260502115810 71 210 5.2 10.4 0.00 0.00 0.00 57 1017.6
20260502114810 70 205 5.2 10.4 0.00 0.00 0.00 58 1017.7
20260502113834 70 209 5.2 10.4 0.00 0.00 0.00 59 1017.8
20260502112812 69 217 4.3 8.7 0.00 0.00 0.00 61 1017.9
20260502111810 69 216 4.3 8.7 0.00 0.00 0.00 62 1017.9
20260502110813 68 215 4.3 9.6 0.00 0.00 0.00 62 1018.0
20260502105831 69 213 5.2 10.4 0.00 0.00 0.00 61 1018.0
20260502104810 68 209 3.5 7.8 0.00 0.00 0.00 62 1018.1
20260502103922 69 222 4.3 7.0 0.00 0.00 0.00 62 1018.1
20260502102821 68 246 2.6 7.8 0.00 0.00 0.00 63 1018.2
20260502101811 67 245 3.5 7.8 0.00 0.00 0.00 65 1018.3
20260502100818 67 213 4.3 8.7 0.00 0.00 0.00 64 1018.4
20260502090852 64 220 3.5 6.1 0.00 0.00 0.00 68 1018.6
20260502070926 59 124 0.0 1.7 0.00 0.00 0.00 57 1018.6
20260502065812 59 171 0.9 2.6 0.00 0.00 0.00 57 1018.7
20260502064833 58 204 0.0 0.9 0.00 0.00 0.00 57 1018.6
20260502063810 58 191 0.0 1.7 0.00 0.00 0.00 58 1018.7
20260502062811 57 179 1.7 3.5 0.00 0.00 0.00 59 1018.8
20260502061815 57 0.0 0.0 0.00 0.00 0.00 58 1018.6
20260502060810 56 0.0 0.0 0.00 0.00 0.00 58 1018.6
20260502055816 56 156 0.9 2.6 0.00 0.00 0.00 57 1018.7
20260502054810 56 178 2.6 4.3 0.00 0.00 0.00 56 1018.7
20260502053815 56 179 2.6 5.2 0.00 0.00 0.00 56 1018.7
20260502052814 55 151 0.0 2.6 0.00 0.00 0.00 58 1018.3
20260502051811 54 147 0.9 3.5 0.00 0.00 0.00 59 1018.3
20260502050832 54 125 0.0 2.6 0.00 0.00 0.00 60 1018.3
20260502045811 54 0.0 0.0 0.00 0.00 0.00 60 1018.5
20260502044818 54 120 0.0 1.7 0.00 0.00 0.00 60 1018.4
20260502043823 54 117 0.9 2.6 0.00 0.00 0.00 59 1018.5
20260502042813 54 109 0.9 2.6 0.00 0.00 0.00 58 1018.5
20260502041811 55 162 1.7 4.3 0.00 0.00 0.00 58 1018.5
20260502040816 55 96 0.0 0.9 0.00 0.00 0.00 57 1018.3
20260502035812 54 144 0.9 2.6 0.00 0.00 0.00 58 1018.4
20260502034811 55 123 1.7 3.5 0.00 0.00 0.00 57 1018.4
20260502033913 55 120 0.9 2.6 0.00 0.00 0.00 57 1018.6
20260502032811 55 114 0.9 2.6 0.00 0.00 0.00 57 1018.6
20260502031811 55 139 0.0 1.7 0.00 0.00 0.00 57 1018.7
20260502030811 55 119 0.9 3.5 0.00 0.00 0.00 56 1018.8
20260502025813 55 112 0.9 2.6 0.00 0.00 0.00 56 1018.9
20260502024813 56 139 0.9 2.6 0.00 0.00 0.00 55 1018.9
20260502023811 56 123 1.7 4.3 0.00 0.00 0.00 55 1019.0
20260502022811 56 126 0.9 2.6 0.00 0.00 0.00 54 1019.0